Time,TemperatureF,DewpointF,PressureIn,WindDirection,WindDirectionDegrees,WindSpeedMPH,WindSpeedGustMPH,Humidity,HourlyPrecipIn,Conditions,Clouds,dailyrainin,SoftwareType,DateUTC
2013-03-15 00:04:00,28.9,15.1,30.31,NE,45,0.0,0.0,56,0.00,,,0.00,WUHU216HW,2013-03-15 04:04:00,
2013-03-15 00:09:00,28.7,15.0,30.31,NE,45,0.0,0.0,56,0.00,,,0.00,WUHU216HW,2013-03-15 04:09:00,
2013-03-15 00:14:00,28.7,15.0,30.30,NE,45,0.0,0.0,56,0.00,,,0.00,WUHU216HW,2013-03-15 04:14:00,
2013-03-15 00:19:00,28.5,14.8,30.30,NE,45,0.0,0.0,56,0.00,,,0.00,WUHU216HW,2013-03-15 04:19:00,
2013-03-15 00:24:00,28.5,15.2,30.30,NE,45,0.0,0.0,57,0.00,,,0.00,WUHU216HW,2013-03-15 04:24:00,
2013-03-15 00:29:00,28.5,15.2,30.30,NE,45,0.0,0.0,57,0.00,,,0.00,WUHU216HW,2013-03-15 04:29:00,
2013-03-15 00:34:00,28.5,15.2,30.30,NE,45,0.0,0.0,57,0.00,,,0.00,WUHU216HW,2013-03-15 04:34:00,
2013-03-15 00:39:00,28.5,15.2,30.30,NE,45,0.0,0.0,57,0.00,,,0.00,WUHU216HW,2013-03-15 04:39:00,
2013-03-15 00:45:00,28.5,15.2,30.31,NE,45,0.0,0.0,57,0.00,,,0.00,WUHU216HW,2013-03-15 04:45:00,
2013-03-15 00:50:00,28.5,15.2,30.31,NE,45,0.0,0.0,57,0.00,,,0.00,WUHU216HW,2013-03-15 04:50:00,
2013-03-15 00:55:00,28.5,15.2,30.30,NE,45,0.0,0.0,57,0.00,,,0.00,WUHU216HW,2013-03-15 04:55:00,
2013-03-15 01:00:00,28.5,15.2,30.30,NE,45,0.0,0.0,57,0.00,,,0.00,WUHU216HW,2013-03-15 05:00:00,
2013-03-15 01:13:00,28.5,15.2,30.30,NE,45,0.0,0.0,57,0.00,,,0.00,WUHU216HW,2013-03-15 05:13:00,
2013-03-15 01:18:00,28.5,15.6,30.31,NE,45,0.0,0.0,58,0.00,,,0.00,WUHU216HW,2013-03-15 05:18:00,
2013-03-15 01:23:00,28.5,15.6,30.30,NE,45,0.0,0.0,58,0.00,,,0.00,WUHU216HW,2013-03-15 05:23:00,
2013-03-15 01:28:00,28.5,15.6,30.30,NE,45,0.0,0.0,58,0.00,,,0.00,WUHU216HW,2013-03-15 05:28:00,
2013-03-15 01:33:00,28.5,15.6,30.30,NE,45,0.0,0.0,58,0.00,,,0.00,WUHU216HW,2013-03-15 05:33:00,
2013-03-15 01:38:00,28.9,15.9,30.30,NE,45,0.0,0.0,58,0.00,,,0.00,WUHU216HW,2013-03-15 05:38:00,
2013-03-15 01:43:00,29.1,16.1,30.30,NE,45,0.0,0.0,58,0.00,,,0.00,WUHU216HW,2013-03-15 05:43:00,
2013-03-15 01:48:00,29.1,16.1,30.30,NE,45,0.0,0.0,58,0.00,,,0.00,WUHU216HW,2013-03-15 05:48:00,
2013-03-15 01:53:00,29.3,16.3,30.29,NE,45,0.0,0.0,58,0.00,,,0.00,WUHU216HW,2013-03-15 05:53:00,
2013-03-15 01:58:00,29.3,16.3,30.29,NE,45,0.0,0.0,58,0.00,,,0.00,WUHU216HW,2013-03-15 05:58:00,
2013-03-15 02:03:00,29.3,16.3,30.29,NE,45,0.0,0.0,58,0.00,,,0.00,WUHU216HW,2013-03-15 06:03:00,
2013-03-15 02:08:00,29.4,16.4,30.29,NE,45,0.0,0.0,58,0.00,,,0.00,WUHU216HW,2013-03-15 06:08:00,
2013-03-15 02:13:00,29.4,16.0,30.29,NE,45,0.0,0.0,57,0.00,,,0.00,WUHU216HW,2013-03-15 06:13:00,
2013-03-15 02:18:00,29.4,16.0,30.29,NE,45,0.0,0.0,57,0.00,,,0.00,WUHU216HW,2013-03-15 06:18:00,
2013-03-15 02:23:00,29.4,16.0,30.29,NE,45,0.0,0.0,57,0.00,,,0.00,WUHU216HW,2013-03-15 06:23:00,
2013-03-15 02:28:00,29.4,16.4,30.29,NE,45,0.0,0.0,58,0.00,,,0.00,WUHU216HW,2013-03-15 06:28:00,
2013-03-15 02:33:00,29.4,16.4,30.29,NE,45,0.0,0.0,58,0.00,,,0.00,WUHU216HW,2013-03-15 06:33:00,
2013-03-15 02:38:00,29.4,16.4,30.29,NE,45,0.0,0.0,58,0.00,,,0.00,WUHU216HW,2013-03-15 06:38:00,
2013-03-15 02:43:00,29.4,16.4,30.29,NE,45,0.0,0.0,58,0.00,,,0.00,WUHU216HW,2013-03-15 06:43:00,
2013-03-15 02:48:00,29.4,16.4,30.29,NE,45,0.0,0.0,58,0.00,,,0.00,WUHU216HW,2013-03-15 06:48:00,
2013-03-15 02:53:00,29.4,16.4,30.29,NE,45,0.0,0.0,58,0.00,,,0.00,WUHU216HW,2013-03-15 06:53:00,
2013-03-15 02:58:00,29.6,16.6,30.29,NE,45,0.0,0.0,58,0.00,,,0.00,WUHU216HW,2013-03-15 06:58:00,
2013-03-15 03:03:00,29.8,16.8,30.29,NE,45,0.0,0.0,58,0.00,,,0.00,WUHU216HW,2013-03-15 07:03:00,
2013-03-15 03:08:00,29.8,16.8,30.29,NE,45,0.0,0.0,58,0.00,,,0.00,WUHU216HW,2013-03-15 07:08:00,
2013-03-15 03:13:00,30.0,17.3,30.28,NE,45,0.0,0.0,59,0.00,,,0.00,WUHU216HW,2013-03-15 07:13:00,
2013-03-15 03:18:00,30.0,17.3,30.28,NE,45,0.0,0.0,59,0.00,,,0.00,WUHU216HW,2013-03-15 07:18:00,
2013-03-15 03:23:00,30.0,17.3,30.28,NE,45,0.0,0.0,59,0.00,,,0.00,WUHU216HW,2013-03-15 07:23:00,
2013-03-15 03:28:00,30.0,17.3,30.28,NE,45,0.0,0.0,59,0.00,,,0.00,WUHU216HW,2013-03-15 07:28:00,
2013-03-15 03:33:00,30.0,17.3,30.27,NE,45,0.0,0.0,59,0.00,,,0.00,WUHU216HW,2013-03-15 07:33:00,
2013-03-15 03:38:00,30.0,17.3,30.27,NE,45,0.0,0.0,59,0.00,,,0.00,WUHU216HW,2013-03-15 07:38:00,
2013-03-15 03:43:00,30.0,17.3,30.26,NE,45,0.0,0.0,59,0.00,,,0.00,WUHU216HW,2013-03-15 07:43:00,
2013-03-15 03:48:00,30.0,17.3,30.27,NE,45,0.0,0.0,59,0.00,,,0.00,WUHU216HW,2013-03-15 07:48:00,
2013-03-15 03:53:00,30.0,17.2,30.26,NE,45,0.0,0.0,59,0.00,,,0.00,WUHU216HW,2013-03-15 07:53:00,
2013-03-15 03:58:00,29.8,17.2,30.26,NE,45,0.0,0.0,59,0.00,,,0.00,WUHU216HW,2013-03-15 07:58:00,
2013-03-15 04:03:00,29.8,17.6,30.27,NE,45,0.0,0.0,60,0.00,,,0.00,WUHU216HW,2013-03-15 08:03:00,
2013-03-15 04:08:00,29.8,17.6,30.27,NE,45,0.0,0.0,60,0.00,,,0.00,WUHU216HW,2013-03-15 08:08:00,
2013-03-15 04:13:00,29.8,17.6,30.27,NE,45,0.0,0.0,60,0.00,,,0.00,WUHU216HW,2013-03-15 08:13:00,
2013-03-15 04:18:00,29.8,17.6,30.26,NE,45,0.0,0.0,60,0.00,,,0.00,WUHU216HW,2013-03-15 08:18:00,
2013-03-15 04:23:00,30.0,18.5,30.27,NE,45,0.0,0.0,62,0.00,,,0.00,WUHU216HW,2013-03-15 08:23:00,
2013-03-15 04:28:00,30.0,18.5,30.27,NE,45,0.0,0.0,62,0.00,,,0.00,WUHU216HW,2013-03-15 08:28:00,
2013-03-15 04:33:00,30.2,18.6,30.27,NE,45,0.0,0.0,62,0.00,,,0.00,WUHU216HW,2013-03-15 08:33:00,
2013-03-15 04:38:00,30.2,18.6,30.27,NE,45,0.0,0.0,62,0.00,,,0.00,WUHU216HW,2013-03-15 08:38:00,
2013-03-15 04:43:00,30.2,18.6,30.27,NE,45,0.0,0.0,62,0.00,,,0.00,WUHU216HW,2013-03-15 08:43:00,
2013-03-15 04:49:00,30.2,18.6,30.27,NE,45,0.0,0.0,62,0.00,,,0.00,WUHU216HW,2013-03-15 08:49:00,
2013-03-15 04:54:00,30.0,18.5,30.27,NE,45,0.0,0.0,62,0.00,,,0.00,WUHU216HW,2013-03-15 08:54:00,
2013-03-15 04:59:00,30.0,18.5,30.27,NE,45,0.0,0.0,62,0.00,,,0.00,WUHU216HW,2013-03-15 08:59:00,
2013-03-15 05:04:00,30.0,18.5,30.27,NE,45,0.0,0.0,62,0.00,,,0.00,WUHU216HW,2013-03-15 09:04:00,
2013-03-15 05:09:00,30.2,19.0,30.26,NE,45,0.0,0.0,63,0.00,,,0.00,WUHU216HW,2013-03-15 09:09:00,
2013-03-15 05:14:00,30.3,19.5,30.26,NE,45,0.0,0.0,64,0.00,,,0.00,WUHU216HW,2013-03-15 09:14:00,
2013-03-15 05:19:00,30.7,19.9,30.26,NE,45,0.0,0.0,64,0.00,,,0.00,WUHU216HW,2013-03-15 09:19:00,
2013-03-15 05:24:00,30.9,20.1,30.26,NE,45,0.0,0.0,64,0.00,,,0.00,WUHU216HW,2013-03-15 09:24:00,
2013-03-15 05:29:00,31.1,20.3,30.26,NE,45,0.0,0.0,64,0.00,,,0.00,WUHU216HW,2013-03-15 09:29:00,
2013-03-15 05:34:00,31.2,20.4,30.26,NE,45,0.0,0.0,64,0.00,,,0.00,WUHU216HW,2013-03-15 09:34:00,
2013-03-15 05:39:00,31.8,21.3,30.26,NE,45,0.0,0.0,65,0.00,,,0.00,WUHU216HW,2013-03-15 09:39:00,
2013-03-15 05:44:00,32.0,21.5,30.25,NE,45,0.0,0.0,65,0.00,,,0.00,WUHU216HW,2013-03-15 09:44:00,
2013-03-15 05:49:00,32.1,21.7,30.25,NE,45,0.0,0.0,65,0.00,,,0.00,WUHU216HW,2013-03-15 09:49:00,
2013-03-15 05:54:00,32.5,22.0,30.25,NE,45,0.0,0.0,65,0.00,,,0.00,WUHU216HW,2013-03-15 09:54:00,
2013-03-15 05:59:00,32.5,22.0,30.25,NE,45,0.0,0.0,65,0.00,,,0.00,WUHU216HW,2013-03-15 09:59:00,
2013-03-15 06:04:00,32.7,22.2,30.25,NE,45,0.0,0.0,65,0.00,,,0.00,WUHU216HW,2013-03-15 10:04:00,
2013-03-15 06:09:00,32.7,22.2,30.26,NE,45,0.0,0.0,65,0.00,,,0.00,WUHU216HW,2013-03-15 10:09:00,
2013-03-15 06:14:00,32.7,22.2,30.26,NE,45,0.0,0.0,65,0.00,,,0.00,WUHU216HW,2013-03-15 10:14:00,
2013-03-15 06:19:00,32.7,22.2,30.26,NE,45,0.0,0.0,65,0.00,,,0.00,WUHU216HW,2013-03-15 10:19:00,
2013-03-15 06:24:00,32.7,22.5,30.26,NE,45,0.0,0.0,66,0.00,,,0.00,WUHU216HW,2013-03-15 10:24:00,
2013-03-15 06:29:00,32.7,22.5,30.26,NE,45,0.0,0.0,66,0.00,,,0.00,WUHU216HW,2013-03-15 10:29:00,
2013-03-15 06:34:00,32.7,22.5,30.26,NE,45,0.0,0.0,66,0.00,,,0.00,WUHU216HW,2013-03-15 10:34:00,
2013-03-15 06:39:00,32.5,22.0,30.27,NE,45,0.0,0.0,65,0.00,,,0.00,WUHU216HW,2013-03-15 10:39:00,
2013-03-15 06:44:00,32.3,21.8,30.26,NE,45,0.0,0.0,65,0.00,,,0.00,WUHU216HW,2013-03-15 10:44:00,
2013-03-15 06:49:00,32.1,21.7,30.26,NE,45,0.0,0.0,65,0.00,,,0.00,WUHU216HW,2013-03-15 10:49:00,
2013-03-15 06:54:00,31.8,21.3,30.27,NE,45,0.0,0.0,65,0.00,,,0.00,WUHU216HW,2013-03-15 10:54:00,
2013-03-15 06:59:00,31.6,21.2,30.26,NE,45,0.0,0.0,65,0.00,,,0.00,WUHU216HW,2013-03-15 10:59:00,
2013-03-15 07:04:00,31.2,20.8,30.27,NE,45,0.0,0.0,65,0.00,,,0.00,WUHU216HW,2013-03-15 11:04:00,
2013-03-15 07:09:00,31.1,20.6,30.26,NE,45,0.0,0.0,65,0.00,,,0.00,WUHU216HW,2013-03-15 11:09:00,
2013-03-15 07:14:00,30.9,20.4,30.26,NE,45,0.0,0.0,65,0.00,,,0.00,WUHU216HW,2013-03-15 11:14:00,
2013-03-15 07:19:00,30.7,20.3,30.26,NE,45,0.0,0.0,65,0.00,,,0.00,WUHU216HW,2013-03-15 11:19:00,
2013-03-15 07:24:00,30.3,19.9,30.26,NE,45,0.0,0.0,65,0.00,,,0.00,WUHU216HW,2013-03-15 11:24:00,
2013-03-15 07:29:00,30.0,19.5,30.26,NE,45,0.0,0.0,65,0.00,,,0.00,WUHU216HW,2013-03-15 11:29:00,
2013-03-15 07:34:00,30.0,19.5,30.27,NE,45,0.0,0.0,65,0.00,,,0.00,WUHU216HW,2013-03-15 11:34:00,
2013-03-15 07:39:00,29.8,19.7,30.27,NE,45,0.0,0.0,66,0.00,,,0.00,WUHU216HW,2013-03-15 11:39:00,
2013-03-15 07:44:00,29.6,19.6,30.27,NE,45,0.0,0.0,66,0.00,,,0.00,WUHU216HW,2013-03-15 11:44:00,
2013-03-15 07:49:00,29.4,19.4,30.27,NE,45,0.0,0.0,66,0.00,,,0.00,WUHU216HW,2013-03-15 11:49:00,
2013-03-15 07:54:00,29.3,19.3,30.27,NE,45,0.0,0.0,66,0.00,,,0.00,WUHU216HW,2013-03-15 11:54:00,
2013-03-15 07:59:00,29.1,19.1,30.27,NE,45,0.0,0.0,66,0.00,,,0.00,WUHU216HW,2013-03-15 11:59:00,
2013-03-15 08:04:00,29.1,19.1,30.27,NE,45,0.0,0.0,66,0.00,,,0.00,WUHU216HW,2013-03-15 12:04:00,
2013-03-15 08:09:00,29.1,19.1,30.26,NE,45,0.0,0.0,66,0.00,,,0.00,WUHU216HW,2013-03-15 12:09:00,
2013-03-15 08:14:00,29.1,19.1,30.27,NE,45,0.0,0.0,66,0.00,,,0.00,WUHU216HW,2013-03-15 12:14:00,
2013-03-15 08:19:00,29.1,19.1,30.27,NE,45,0.0,0.0,67,0.00,,,0.00,WUHU216HW,2013-03-15 12:19:00,
2013-03-15 08:24:00,29.1,19.5,30.27,NE,45,0.0,0.0,67,0.00,,,0.00,WUHU216HW,2013-03-15 12:24:00,
2013-03-15 08:29:00,29.1,19.5,30.26,NE,45,0.0,0.0,67,0.00,,,0.00,WUHU216HW,2013-03-15 12:29:00,
2013-03-15 08:34:00,29.1,19.5,30.27,NE,45,0.0,0.0,67,0.00,,,0.00,WUHU216HW,2013-03-15 12:34:00,
2013-03-15 08:39:00,29.3,19.6,30.27,NE,45,0.0,0.0,67,0.00,,,0.00,WUHU216HW,2013-03-15 12:39:00,
2013-03-15 08:44:00,29.4,20.1,30.26,NE,45,0.0,0.0,68,0.00,,,0.00,WUHU216HW,2013-03-15 12:44:00,
2013-03-15 08:49:00,29.6,20.3,30.26,NE,45,0.0,0.0,68,0.00,,,0.00,WUHU216HW,2013-03-15 12:49:00,
2013-03-15 08:54:00,29.8,20.5,30.27,NE,45,0.0,0.0,68,0.00,,,0.00,WUHU216HW,2013-03-15 12:54:00,
2013-03-15 08:59:00,30.0,20.6,30.26,NE,45,0.0,0.0,68,0.00,,,0.00,WUHU216HW,2013-03-15 12:59:00,
2013-03-15 09:04:00,30.2,20.8,30.26,NE,45,0.0,0.0,68,0.00,,,0.00,WUHU216HW,2013-03-15 13:04:00,
2013-03-15 09:09:00,30.5,21.5,30.26,NE,45,0.0,0.0,69,0.00,,,0.00,WUHU216HW,2013-03-15 13:09:00,
2013-03-15 09:14:00,30.9,21.9,30.26,NE,45,0.0,0.0,69,0.00,,,0.00,WUHU216HW,2013-03-15 13:14:00,
2013-03-15 09:19:00,31.6,22.6,30.26,NE,45,0.0,0.0,69,0.00,,,0.00,WUHU216HW,2013-03-15 13:19:00,
2013-03-15 09:24:00,31.8,22.8,30.26,NE,45,0.0,0.0,69,0.00,,,0.00,WUHU216HW,2013-03-15 13:24:00,
2013-03-15 09:29:00,32.1,23.1,30.26,NE,45,0.0,0.0,69,0.00,,,0.00,WUHU216HW,2013-03-15 13:29:00,
2013-03-15 09:34:00,32.7,23.6,30.26,NE,45,0.0,0.0,69,0.00,,,0.00,WUHU216HW,2013-03-15 13:34:00,
2013-03-15 09:39:00,33.0,23.9,30.26,NE,45,0.0,0.0,69,0.00,,,0.00,WUHU216HW,2013-03-15 13:39:00,
2013-03-15 09:44:00,33.8,24.6,30.26,NE,45,0.0,0.0,69,0.00,,,0.00,WUHU216HW,2013-03-15 13:44:00,
2013-03-15 09:49:00,34.3,25.1,30.26,NE,45,0.0,0.0,69,0.00,,,0.00,WUHU216HW,2013-03-15 13:49:00,
2013-03-15 09:54:00,34.7,25.5,30.26,NE,45,0.0,0.0,69,0.00,,,0.00,WUHU216HW,2013-03-15 13:54:00,
2013-03-15 09:59:00,35.4,26.9,30.25,NE,45,0.0,0.0,69,0.00,,,0.00,WUHU216HW,2013-03-15 13:59:00,
2013-03-15 10:04:00,36.3,27.5,30.25,ENE,68,0.0,0.0,70,0.00,,,0.00,WUHU216HW,2013-03-15 14:04:00,
2013-03-15 10:09:00,37.2,28.7,30.25,ENE,68,0.0,0.0,71,0.00,,,0.00,WUHU216HW,2013-03-15 14:09:00,
2013-03-15 10:14:00,38.8,29.8,30.25,ENE,68,0.0,0.0,71,0.00,,,0.00,WUHU216HW,2013-03-15 14:14:00,
2013-03-15 10:19:00,39.7,30.3,30.24,ENE,68,0.0,0.0,69,0.00,,,0.00,WUHU216HW,2013-03-15 14:19:00,
2013-03-15 10:24:00,40.6,30.8,30.24,ENE,68,0.0,0.0,68,0.00,,,0.00,WUHU216HW,2013-03-15 14:24:00,
2013-03-15 10:29:00,41.5,32.2,30.24,ENE,68,0.0,0.0,68,0.00,,,0.00,WUHU216HW,2013-03-15 14:29:00,
2013-03-15 10:34:00,42.9,32.7,30.24,ENE,68,0.0,0.0,67,0.00,,,0.00,WUHU216HW,2013-03-15 14:34:00,
2013-03-15 10:39:00,43.8,32.8,30.24,ENE,68,0.0,0.0,65,0.00,,,0.00,WUHU216HW,2013-03-15 14:39:00,
2013-03-15 10:44:00,45.1,33.6,30.24,ENE,68,0.0,0.0,64,0.00,,,0.00,WUHU216HW,2013-03-15 14:44:00,
2013-03-15 10:49:00,45.6,33.7,30.24,ENE,68,0.0,0.0,63,0.00,,,0.00,WUHU216HW,2013-03-15 14:49:00,
2013-03-15 10:54:00,46.7,34.7,30.24,SE,135,0.0,0.0,63,0.00,,,0.00,WUHU216HW,2013-03-15 14:54:00,
2013-03-15 10:59:00,47.4,35.0,30.23,SE,135,0.0,0.0,62,0.00,,,0.00,WUHU216HW,2013-03-15 14:59:00,
2013-03-15 11:04:00,48.9,35.7,30.23,SE,135,0.0,0.0,60,0.00,,,0.00,WUHU216HW,2013-03-15 15:04:00,
2013-03-15 11:09:00,49.6,36.3,30.23,SE,135,0.0,0.0,60,0.00,,,0.00,WUHU216HW,2013-03-15 15:09:00,
2013-03-15 11:14:00,50.3,36.5,30.23,SE,135,0.0,0.0,59,0.00,,,0.00,WUHU216HW,2013-03-15 15:14:00,
2013-03-15 11:19:00,51.4,36.6,30.23,SSE,158,0.0,0.0,57,0.00,,,0.00,WUHU216HW,2013-03-15 15:19:00,
2013-03-15 11:24:00,51.9,37.1,30.22,SE,135,0.0,0.0,57,0.00,,,0.00,WUHU216HW,2013-03-15 15:24:00,
2013-03-15 11:29:00,53.0,37.7,30.22,SE,135,0.0,0.0,56,0.00,,,0.00,WUHU216HW,2013-03-15 15:29:00,
2013-03-15 11:34:00,53.7,38.3,30.22,SSE,158,0.0,0.0,56,0.00,,,0.00,WUHU216HW,2013-03-15 15:34:00,
2013-03-15 11:39:00,54.3,37.9,30.22,SSE,158,0.0,0.0,54,0.00,,,0.00,WUHU216HW,2013-03-15 15:39:00,
2013-03-15 11:44:00,55.0,38.5,30.21,SSE,158,0.0,0.0,54,0.00,,,0.00,WUHU216HW,2013-03-15 15:44:00,
2013-03-15 11:49:00,55.9,38.9,30.21,SSE,158,0.0,0.0,53,0.00,,,0.00,WUHU216HW,2013-03-15 15:49:00,
2013-03-15 11:54:00,56.4,39.5,30.21,SE,135,0.0,0.0,53,0.00,,,0.00,WUHU216HW,2013-03-15 15:54:00,
2013-03-15 11:59:00,57.3,39.9,30.21,SSE,158,0.0,0.0,52,0.00,,,0.00,WUHU216HW,2013-03-15 15:59:00,
2013-03-15 12:04:00,58.1,40.1,30.21,SSE,158,0.0,0.0,51,0.00,,,0.00,WUHU216HW,2013-03-15 16:04:00,
2013-03-15 12:09:00,58.8,40.7,30.20,SSE,158,0.0,0.0,51,0.00,,,0.00,WUHU216HW,2013-03-15 16:09:00,
2013-03-15 12:14:00,58.8,40.0,30.20,SSE,158,0.0,0.0,49,0.00,,,0.00,WUHU216HW,2013-03-15 16:14:00,
2013-03-15 12:19:00,59.5,40.3,30.20,SSE,158,0.0,0.0,49,0.00,,,0.00,WUHU216HW,2013-03-15 16:19:00,
2013-03-15 12:24:00,59.7,39.9,30.19,SSE,158,1.3,1.3,48,0.00,,,0.00,WUHU216HW,2013-03-15 16:24:00,
2013-03-15 12:29:00,60.0,40.2,30.19,SE,135,0.0,3.5,48,0.00,,,0.00,WUHU216HW,2013-03-15 16:29:00,
2013-03-15 12:34:00,60.6,40.7,30.19,SSE,158,0.0,3.5,48,0.00,,,0.00,WUHU216HW,2013-03-15 16:34:00,
2013-03-15 12:39:00,60.9,40.5,30.19,SE,135,0.0,0.0,47,0.00,,,0.00,WUHU216HW,2013-03-15 16:39:00,
2013-03-15 12:44:00,61.3,40.8,30.19,South,180,0.0,0.0,47,0.00,,,0.00,WUHU216HW,2013-03-15 16:44:00,
2013-03-15 12:49:00,61.7,40.5,30.18,South,180,0.0,0.0,46,0.00,,,0.00,WUHU216HW,2013-03-15 16:49:00,
2013-03-15 12:54:00,61.8,40.7,30.18,SE,135,0.0,0.0,46,0.00,,,0.00,WUHU216HW,2013-03-15 16:54:00,
2013-03-15 12:59:00,61.7,38.8,30.18,NW,315,0.0,0.0,43,0.00,,,0.00,WUHU216HW,2013-03-15 16:59:00,
2013-03-15 13:04:00,61.7,39.4,30.17,SE,135,0.0,0.0,44,0.00,,,0.00,WUHU216HW,2013-03-15 17:04:00,
2013-03-15 13:09:00,61.8,40.1,30.17,SE,135,0.0,0.0,45,0.00,,,0.00,WUHU216HW,2013-03-15 17:09:00,
2013-03-15 13:14:00,62.4,39.5,30.17,SE,135,0.0,0.0,43,0.00,,,0.00,WUHU216HW,2013-03-15 17:14:00,
2013-03-15 13:19:00,62.4,40.0,30.17,SSE,158,0.0,0.0,44,0.00,,,0.00,WUHU216HW,2013-03-15 17:19:00,
2013-03-15 13:24:00,62.7,40.4,30.16,SE,135,0.0,0.0,44,0.00,,,0.00,WUHU216HW,2013-03-15 17:24:00,
2013-03-15 13:29:00,63.5,40.4,30.16,SSE,158,0.0,0.0,43,0.00,,,0.00,WUHU216HW,2013-03-15 17:29:00,
2013-03-15 13:34:00,63.6,40.6,30.16,SSE,158,0.0,0.0,43,0.00,,,0.00,WUHU216HW,2013-03-15 17:34:00,
2013-03-15 13:39:00,64.2,41.7,30.16,SSE,158,0.0,0.0,44,0.00,,,0.00,WUHU216HW,2013-03-15 17:39:00,
2013-03-15 13:44:00,64.2,40.5,30.15,NNW,338,0.0,0.0,42,0.00,,,0.00,WUHU216HW,2013-03-15 17:44:00,
2013-03-15 13:49:00,64.5,42.0,30.15,NNW,338,0.0,0.0,44,0.00,,,0.00,WUHU216HW,2013-03-15 17:49:00,
2013-03-15 13:54:00,64.9,42.3,30.16,West,270,0.0,0.0,44,0.00,,,0.00,WUHU216HW,2013-03-15 17:54:00,
2013-03-15 13:59:00,65.3,40.9,30.15,SW,225,0.0,0.0,41,0.00,,,0.00,WUHU216HW,2013-03-15 17:59:00,
2013-03-15 14:04:00,64.9,40.0,30.15,West,270,0.0,0.0,40,0.00,,,0.00,WUHU216HW,2013-03-15 18:04:00,
2013-03-15 14:09:00,65.1,40.7,30.15,West,270,0.0,0.0,41,0.00,,,0.00,WUHU216HW,2013-03-15 18:09:00,
2013-03-15 14:14:00,65.4,41.1,30.15,West,270,0.0,0.0,41,0.00,,,0.00,WUHU216HW,2013-03-15 18:14:00,
2013-03-15 14:20:00,65.6,40.6,30.14,WSW,248,0.0,0.0,40,0.00,,,0.00,WUHU216HW,2013-03-15 18:20:00,
2013-03-15 14:25:00,66.0,41.0,30.13,WSW,248,0.0,0.0,40,0.00,,,0.00,WUHU216HW,2013-03-15 18:25:00,
2013-03-15 14:30:00,66.5,41.5,30.13,WSW,248,0.0,0.0,40,0.00,,,0.00,WUHU216HW,2013-03-15 18:30:00,
2013-03-15 14:35:00,66.5,40.7,30.13,WSW,248,0.0,0.0,39,0.00,,,0.00,WUHU216HW,2013-03-15 18:35:00,
2013-03-15 14:40:00,66.5,40.7,30.13,WSW,248,0.0,0.0,39,0.00,,,0.00,WUHU216HW,2013-03-15 18:40:00,
2013-03-15 14:45:00,66.7,40.9,30.13,WSW,248,0.0,0.0,39,0.00,,,0.00,WUHU216HW,2013-03-15 18:45:00,
2013-03-15 14:50:00,66.5,40.0,30.13,NW,315,0.0,0.0,38,0.00,,,0.00,WUHU216HW,2013-03-15 18:50:00,
2013-03-15 14:55:00,66.7,40.9,30.12,WSW,248,0.0,0.0,39,0.00,,,0.00,WUHU216HW,2013-03-15 18:55:00,
2013-03-15 15:00:00,67.8,43.2,30.12,WSW,248,0.0,0.0,41,0.00,,,0.00,WUHU216HW,2013-03-15 19:00:00,
2013-03-15 15:05:00,68.3,42.3,30.11,WSW,248,0.0,0.0,39,0.00,,,0.00,WUHU216HW,2013-03-15 19:05:00,
2013-03-15 15:10:00,68.7,41.9,30.11,WSW,248,0.0,0.0,38,0.00,,,0.00,WUHU216HW,2013-03-15 19:10:00,
2013-03-15 15:15:00,68.7,40.4,30.11,WSW,248,0.0,0.0,36,0.00,,,0.00,WUHU216HW,2013-03-15 19:15:00,
2013-03-15 15:20:00,68.5,40.3,30.10,WSW,248,0.0,0.0,36,0.00,,,0.00,WUHU216HW,2013-03-15 19:20:00,
2013-03-15 15:25:00,68.5,41.0,30.10,WSW,248,0.0,0.0,37,0.00,,,0.00,WUHU216HW,2013-03-15 19:25:00,
2013-03-15 15:30:00,68.7,41.2,30.10,WSW,248,0.0,0.0,37,0.00,,,0.00,WUHU216HW,2013-03-15 19:30:00,
2013-03-15 15:35:00,68.9,40.6,30.09,WSW,248,0.0,0.0,36,0.00,,,0.00,WUHU216HW,2013-03-15 19:35:00,
2013-03-15 15:40:00,68.7,40.4,30.09,WSW,248,0.0,0.0,36,0.00,,,0.00,WUHU216HW,2013-03-15 19:40:00,
2013-03-15 15:45:00,68.5,39.5,30.09,NW,315,0.0,0.0,35,0.00,,,0.00,WUHU216HW,2013-03-15 19:45:00,
2013-03-15 15:50:00,68.1,39.2,30.09,NNW,338,0.0,0.0,35,0.00,,,0.00,WUHU216HW,2013-03-15 19:50:00,
2013-03-15 15:55:00,68.3,40.1,30.09,NW,315,0.0,0.0,36,0.00,,,0.00,WUHU216HW,2013-03-15 19:55:00,
2013-03-15 16:00:00,68.7,40.4,30.08,WNW,293,0.0,0.0,36,0.00,,,0.00,WUHU216HW,2013-03-15 20:00:00,
2013-03-15 16:05:00,68.5,40.3,30.08,WSW,248,0.0,0.0,36,0.00,,,0.00,WUHU216HW,2013-03-15 20:05:00,
2013-03-15 16:10:00,68.5,38.8,30.08,NNW,338,0.0,0.0,34,0.00,,,0.00,WUHU216HW,2013-03-15 20:10:00,
2013-03-15 16:15:00,68.1,39.2,30.08,NNE,23,0.0,0.0,35,0.00,,,0.00,WUHU216HW,2013-03-15 20:15:00,
2013-03-15 16:20:00,68.0,39.1,30.08,North,0,0.0,0.0,35,0.00,,,0.00,WUHU216HW,2013-03-15 20:20:00,
2013-03-15 16:25:00,67.6,38.0,30.08,WNW,293,0.0,0.0,34,0.00,,,0.00,WUHU216HW,2013-03-15 20:25:00,
2013-03-15 16:30:00,67.2,38.4,30.08,WNW,293,0.0,0.0,35,0.00,,,0.00,WUHU216HW,2013-03-15 20:30:00,
2013-03-15 16:35:00,67.2,38.4,30.08,NW,315,0.0,0.0,35,0.00,,,0.00,WUHU216HW,2013-03-15 20:35:00,
2013-03-15 16:40:00,67.2,37.7,30.08,WNW,293,0.0,0.0,34,0.00,,,0.00,WUHU216HW,2013-03-15 20:40:00,
2013-03-15 16:45:00,67.1,36.8,30.08,NW,315,0.0,0.0,33,0.00,,,0.00,WUHU216HW,2013-03-15 20:45:00,
2013-03-15 16:50:00,66.9,35.9,30.08,NW,315,3.5,3.5,32,0.00,,,0.00,WUHU216HW,2013-03-15 20:50:00,
2013-03-15 16:55:00,66.9,35.2,30.08,WNW,293,0.0,4.2,31,0.00,,,0.00,WUHU216HW,2013-03-15 20:55:00,
2013-03-15 17:00:00,66.9,35.2,30.07,NNW,338,0.0,7.3,31,0.00,,,0.00,WUHU216HW,2013-03-15 21:00:00,
2013-03-15 17:05:00,66.7,35.1,30.07,North,0,3.5,7.3,31,0.00,,,0.00,WUHU216HW,2013-03-15 21:05:00,
2013-03-15 17:10:00,66.7,35.8,30.07,North,0,0.0,3.5,32,0.00,,,0.00,WUHU216HW,2013-03-15 21:10:00,
2013-03-15 17:15:00,66.7,35.1,30.07,NW,315,4.4,4.4,31,0.00,,,0.00,WUHU216HW,2013-03-15 21:15:00,
2013-03-15 17:20:00,66.9,35.9,30.07,WNW,293,0.0,8.0,32,0.00,,,0.00,WUHU216HW,2013-03-15 21:20:00,
2013-03-15 17:25:00,66.9,35.9,30.07,NNW,338,16.1,16.1,32,0.00,,,0.00,WUHU216HW,2013-03-15 21:25:00,
2013-03-15 17:30:00,66.7,36.5,30.07,NNW,338,0.0,16.1,33,0.00,,,0.00,WUHU216HW,2013-03-15 21:30:00,
2013-03-15 17:35:00,66.7,36.5,30.08,WNW,293,0.0,0.0,33,0.00,,,0.00,WUHU216HW,2013-03-15 21:35:00,
2013-03-15 17:40:00,66.3,36.2,30.07,NW,315,0.0,2.0,33,0.00,,,0.00,WUHU216HW,2013-03-15 21:40:00,
2013-03-15 17:45:00,66.2,36.8,30.07,NNW,338,0.0,2.0,34,0.00,,,0.00,WUHU216HW,2013-03-15 21:45:00,
2013-03-15 17:50:00,66.0,36.6,30.07,NW,315,0.0,8.5,34,0.00,,,0.00,WUHU216HW,2013-03-15 21:50:00,
2013-03-15 17:55:00,66.0,37.4,30.07,NNW,338,3.3,8.5,35,0.00,,,0.00,WUHU216HW,2013-03-15 21:55:00,
2013-03-15 18:00:00,66.0,37.4,30.07,NNW,338,3.3,3.3,35,0.00,,,0.00,WUHU216HW,2013-03-15 22:00:00,
2013-03-15 18:05:00,65.8,37.0,30.07,WNW,293,0.0,3.3,35,0.00,,,0.00,WUHU216HW,2013-03-15 22:05:00,
2013-03-15 18:10:00,65.4,37.6,30.07,WNW,293,0.0,3.3,36,0.00,,,0.00,WUHU216HW,2013-03-15 22:10:00,
2013-03-15 18:15:00,65.4,37.6,30.07,WNW,293,0.0,0.0,36,0.00,,,0.00,WUHU216HW,2013-03-15 22:15:00,
2013-03-15 18:20:00,65.3,37.4,30.07,NW,315,0.0,0.0,36,0.00,,,0.00,WUHU216HW,2013-03-15 22:20:00,
2013-03-15 18:25:00,65.3,37.4,30.07,NW,315,0.0,0.0,36,0.00,,,0.00,WUHU216HW,2013-03-15 22:25:00,
2013-03-15 18:30:00,65.3,37.4,30.07,NW,315,0.0,0.0,36,0.00,,,0.00,WUHU216HW,2013-03-15 22:30:00,
2013-03-15 18:45:00,65.6,38.5,30.07,NNW,338,0.0,1.1,37,0.00,,,0.00,WUHU216HW,2013-03-15 22:45:00,
2013-03-15 18:50:00,65.1,38.0,30.07,NW,315,7.8,7.8,37,0.00,,,0.00,WUHU216HW,2013-03-15 22:50:00,
2013-03-15 18:55:00,64.5,38.2,30.07,North,0,0.0,7.8,38,0.00,,,0.00,WUHU216HW,2013-03-15 22:55:00,
2013-03-15 19:00:00,64.0,38.5,30.07,North,0,0.0,0.0,39,0.00,,,0.00,WUHU216HW,2013-03-15 23:00:00,
2013-03-15 19:05:00,63.8,38.3,30.07,WNW,293,0.0,0.0,39,0.00,,,0.00,WUHU216HW,2013-03-15 23:05:00,
2013-03-15 19:10:00,63.8,38.3,30.07,WNW,293,0.0,0.0,39,0.00,,,0.00,WUHU216HW,2013-03-15 23:10:00,
2013-03-15 19:15:00,62.7,38.1,30.07,WNW,293,0.0,0.0,40,0.00,,,0.00,WUHU216HW,2013-03-15 23:15:00,
2013-03-15 19:20:00,62.6,37.9,30.07,NW,315,0.0,0.0,40,0.00,,,0.00,WUHU216HW,2013-03-15 23:20:00,
2013-03-15 19:25:00,61.8,37.9,30.07,NW,315,0.0,0.0,40,0.00,,,0.00,WUHU216HW,2013-03-15 23:25:00,
2013-03-15 19:30:00,61.7,37.7,30.07,NW,315,0.0,0.0,41,0.00,,,0.00,WUHU216HW,2013-03-15 23:30:00,
2013-03-15 19:35:00,61.7,37.7,30.08,NW,315,0.0,0.0,41,0.00,,,0.00,WUHU216HW,2013-03-15 23:35:00,
2013-03-15 19:40:00,60.9,37.6,30.08,NW,315,0.0,0.0,42,0.00,,,0.00,WUHU216HW,2013-03-15 23:40:00,
2013-03-15 19:45:00,60.6,37.3,30.08,NW,315,0.0,0.0,42,0.00,,,0.00,WUHU216HW,2013-03-15 23:45:00,
2013-03-15 19:50:00,60.0,37.4,30.08,NW,315,0.0,0.0,43,0.00,,,0.00,WUHU216HW,2013-03-15 23:50:00,
2013-03-15 19:55:00,59.7,37.0,30.08,NW,315,0.0,0.0,43,0.00,,,0.00,WUHU216HW,2013-03-15 23:55:00,
2013-03-15 20:00:00,59.3,37.3,30.08,NW,315,0.0,0.0,44,0.00,,,0.00,WUHU216HW,2013-03-16 00:00:00,
2013-03-15 20:05:00,58.8,36.8,30.08,NW,315,0.0,0.0,44,0.00,,,0.00,WUHU216HW,2013-03-16 00:05:00,
2013-03-15 20:10:00,58.6,37.2,30.08,NW,315,0.0,0.0,45,0.00,,,0.00,WUHU216HW,2013-03-16 00:10:00,
2013-03-15 20:15:00,58.1,36.7,30.08,NW,315,0.0,0.0,45,0.00,,,0.00,WUHU216HW,2013-03-16 00:15:00,
2013-03-15 20:20:00,57.7,36.4,30.08,NW,315,0.0,0.0,45,0.00,,,0.00,WUHU216HW,2013-03-16 00:20:00,
2013-03-15 20:25:00,57.2,36.5,30.08,NW,315,0.0,0.0,46,0.00,,,0.00,WUHU216HW,2013-03-16 00:25:00,
2013-03-15 20:30:00,56.8,36.7,30.08,NW,315,0.0,0.0,47,0.00,,,0.00,WUHU216HW,2013-03-16 00:30:00,
2013-03-15 20:35:00,56.4,36.4,30.08,NW,315,0.0,0.0,47,0.00,,,0.00,WUHU216HW,2013-03-16 00:35:00,
2013-03-15 20:40:00,55.9,36.4,30.08,NW,315,0.0,0.0,48,0.00,,,0.00,WUHU216HW,2013-03-16 00:40:00,
2013-03-15 20:45:00,55.5,36.0,30.08,NW,315,0.0,0.0,48,0.00,,,0.00,WUHU216HW,2013-03-16 00:45:00,
2013-03-15 20:50:00,55.2,36.3,30.08,NW,315,0.0,0.0,49,0.00,,,0.00,WUHU216HW,2013-03-16 00:50:00,
2013-03-15 20:55:00,54.8,35.9,30.08,NW,315,0.0,0.0,49,0.00,,,0.00,WUHU216HW,2013-03-16 00:55:00,
2013-03-15 21:00:00,54.3,36.0,30.08,NW,315,0.0,0.0,50,0.00,,,0.00,WUHU216HW,2013-03-16 01:00:00,
2013-03-15 21:05:00,54.1,35.9,30.08,NW,315,0.0,0.0,50,0.00,,,0.00,WUHU216HW,2013-03-16 01:05:00,
2013-03-15 21:10:00,53.7,36.0,30.08,NW,315,0.0,0.0,51,0.00,,,0.00,WUHU216HW,2013-03-16 01:10:00,
2013-03-15 21:15:00,53.4,36.1,30.08,NW,315,0.0,0.0,52,0.00,,,0.00,WUHU216HW,2013-03-16 01:15:00,
2013-03-15 21:20:00,53.2,36.0,30.08,NW,315,0.0,0.0,52,0.00,,,0.00,WUHU216HW,2013-03-16 01:20:00,
2013-03-15 21:26:00,52.8,36.1,30.08,NW,315,0.0,0.0,53,0.00,,,0.00,WUHU216HW,2013-03-16 01:26:00,
2013-03-15 21:31:00,52.5,35.8,30.08,NW,315,0.0,0.0,53,0.00,,,0.00,WUHU216HW,2013-03-16 01:31:00,
2013-03-15 21:36:00,52.5,36.2,30.08,NW,315,0.0,0.0,54,0.00,,,0.00,WUHU216HW,2013-03-16 01:36:00,
2013-03-15 21:41:00,52.3,36.1,30.08,NW,315,0.0,0.0,54,0.00,,,0.00,WUHU216HW,2013-03-16 01:41:00,
2013-03-15 21:46:00,52.1,36.3,30.08,NW,315,0.0,0.0,55,0.00,,,0.00,WUHU216HW,2013-03-16 01:46:00,
2013-03-15 21:51:00,52.1,36.3,30.08,NW,315,0.0,0.0,55,0.00,,,0.00,WUHU216HW,2013-03-16 01:51:00,
2013-03-15 21:56:00,51.9,36.6,30.08,NW,315,0.0,0.0,56,0.00,,,0.00,WUHU216HW,2013-03-16 01:56:00,
2013-03-15 22:01:00,51.9,36.6,30.08,NW,315,0.0,0.0,56,0.00,,,0.00,WUHU216HW,2013-03-16 02:01:00,
2013-03-15 22:06:00,51.9,36.6,30.08,NW,315,0.0,0.0,56,0.00,,,0.00,WUHU216HW,2013-03-16 02:06:00,
2013-03-15 22:11:00,51.8,36.5,30.08,NW,315,0.0,0.0,56,0.00,,,0.00,WUHU216HW,2013-03-16 02:11:00,
2013-03-15 22:16:00,51.6,36.7,30.08,NW,315,0.0,0.0,57,0.00,,,0.00,WUHU216HW,2013-03-16 02:16:00,
2013-03-15 22:21:00,51.6,36.7,30.07,NW,315,0.0,0.0,57,0.00,,,0.00,WUHU216HW,2013-03-16 02:21:00,
2013-03-15 22:26:00,51.4,36.6,30.07,NW,315,0.0,0.0,57,0.00,,,0.00,WUHU216HW,2013-03-16 02:26:00,
2013-03-15 22:31:00,51.4,36.6,30.07,NW,315,0.0,0.0,57,0.00,,,0.00,WUHU216HW,2013-03-16 02:31:00,
2013-03-15 22:37:00,51.0,36.3,30.08,NW,315,0.0,0.0,57,0.00,,,0.00,WUHU216HW,2013-03-16 02:37:00,
2013-03-15 22:42:00,51.0,36.7,30.08,NW,315,0.0,0.0,58,0.00,,,0.00,WUHU216HW,2013-03-16 02:42:00,
2013-03-15 22:47:00,50.9,36.5,30.07,NW,315,0.0,0.0,58,0.00,,,0.00,WUHU216HW,2013-03-16 02:47:00,
2013-03-15 22:52:00,50.7,36.4,30.08,NW,315,0.0,0.0,58,0.00,,,0.00,WUHU216HW,2013-03-16 02:52:00,
2013-03-15 22:57:00,50.5,36.4,30.07,NW,315,0.0,0.0,58,0.00,,,0.00,WUHU216HW,2013-03-16 02:57:00,
2013-03-15 23:02:00,50.5,36.7,30.08,NW,315,0.0,0.0,59,0.00,,,0.00,WUHU216HW,2013-03-16 03:02:00,
2013-03-15 23:07:00,50.3,36.5,30.08,NW,315,0.0,0.0,59,0.00,,,0.00,WUHU216HW,2013-03-16 03:07:00,
2013-03-15 23:12:00,50.1,36.3,30.07,NW,315,0.0,0.0,59,0.00,,,0.00,WUHU216HW,2013-03-16 03:12:00,
2013-03-15 23:17:00,50.1,36.3,30.08,NW,315,0.0,0.0,59,0.00,,,0.00,WUHU216HW,2013-03-16 03:17:00,
2013-03-15 23:22:00,50.1,36.8,30.08,NW,315,0.0,0.0,60,0.00,,,0.00,WUHU216HW,2013-03-16 03:22:00,
2013-03-15 23:27:00,50.1,36.8,30.08,NW,315,0.0,0.0,60,0.00,,,0.00,WUHU216HW,2013-03-16 03:27:00,
2013-03-15 23:32:00,49.8,36.5,30.08,NW,315,0.0,0.0,60,0.00,,,0.00,WUHU216HW,2013-03-16 03:32:00,
2013-03-15 23:37:00,49.8,36.5,30.08,NW,315,0.0,0.0,60,0.00,,,0.00,WUHU216HW,2013-03-16 03:37:00,
2013-03-15 23:42:00,49.8,36.8,30.07,NW,315,0.0,0.0,61,0.00,,,0.00,WUHU216HW,2013-03-16 03:42:00,
2013-03-15 23:47:00,49.8,36.8,30.07,NW,315,0.0,0.0,61,0.00,,,0.00,WUHU216HW,2013-03-16 03:47:00,
2013-03-15 23:52:00,49.8,36.8,30.07,NW,315,0.0,0.0,61,0.00,,,0.00,WUHU216HW,2013-03-16 03:52:00,
2013-03-15 23:57:00,49.8,36.8,30.07,NW,315,0.0,0.0,62,0.00,,,0.00,WUHU216HW,2013-03-16 03:57:00,